Weather Service Report


095 
ASUS41 KAKQ 281810
RWRAKQ

REGIONAL WEATHER ROUNDUP
NATIONAL WEATHER SERVICE WAKEFIELD VA
200 PM EDT THU AUG 28 2014

Note: "fair" indicates few or no clouds below 12,000 feet with no
significant weather and/or obstructions to visibility. * = Denotes
station may not report precipitation (e.g., rain,snow,etc.),
thunder or fog.

VAZ042-051-052>054-056-281900-
NORTHERN VIRGINIA
  
CITY           SKY/WX    TMP DP  RH WIND       PRES   REMARKS
WASH NATIONAL  MOSUNNY   85  57  38 NW13G22   29.98S                  
DULLES         MOSUNNY   79  59  50 NW10G22   30.00S                  
FORT BELVOIR   SUNNY     83  61  46 NW8G17    29.98S                  
QUANTICO       MOSUNNY   84  60  44 N12G17    29.98F                  
FREDERICKSBRG* SUNNY     86  56  36 N10       29.97S                  
STAFFORD*      SUNNY     82  60  47 NW13      30.02S                  
WARRENTON      SUNNY     84  67  56 N6        29.99S                  
CULPEPER*      SUNNY    N/A N/A N/A N9        29.99S                  
MANASSAS*      SUNNY     82  63  51 N8        29.99F                  
LEESBURG*      SUNNY     81  63  54 N12       30.01S                  
WINCHESTER     MOSUNNY   81  57  44 NW6       30.01F                  
$$

VAZ048-049-060>072-079>083-281900-
CENTRAL AND SOUTH CENTRAL VIRGINIA...AND NORTH CENTRAL NORTH CAROLINA
  
CITY           SKY/WX    TMP DP  RH WIND       PRES   REMARKS
RICHMOND       PTSUNNY   90  64  42 N7        29.96F                  
CHESTERFIELD*  PTCLDY    88  64  45 W6        29.99S                  
HANOVER        MOSUNNY   88  65  46 W10       29.98F                  
TAPPAHANNOCK*  MOSUNNY   87  50  27 NW7       29.98R                  
CHARLOTTSVILLE SUNNY     87  64  46 N9        29.99S                  
ORANGE*        MOSUNNY   84  64  51 N5        30.01S                  
LOUISA*        SUNNY     86  68  54 N8        29.98S                  
FARMVILLE*     PTSUNNY   84  66  54 CALM      29.97S                  
SOUTH HILL*    PTSUNNY   88  72  58 CALM      30.03F                  
ROANOKE RAPIDS MOCLDY    86  70  58 NW3       29.97F                  
RALEIGH        MOSUNNY   88  70  55 CALM      29.99F                  
$$

VAZ088>098-281900-
SOUTHEAST VIRGINIA
  
CITY           SKY/WX    TMP DP  RH WIND       PRES   REMARKS
NORFOLK        MOSUNNY   81  70  69 NE10      29.96S                  
VIRGINIA BEACH PTSUNNY   84  67  56 N10       29.95S                  
NORFOLK NAVAL  PTSUNNY   84  71  65 NE8       29.97S                  
WEST POINT*    MOSUNNY   88  58  36 NW7       29.97F                  
NEWPORT NEWS   PTSUNNY   89  69  51 NW7       29.96S                  
LANGLEY AFB    PTSUNNY   82  73  73 E8        29.95S                  
FORT EUSTIS    PTSUNNY   86  65  49 VRB7      29.94F                  
WILLIAMSBURG*  PTSUNNY   91  70  49 N5        29.97S HX  97           
FRANKLIN*      MOSUNNY   88  70  55 NW6       29.96F                  
WAKEFIELD      MOSUNNY   88  68  51 VRB6      29.96F                  
$$

VAZ020-022-025-037-045-281900-
WESTERN AND SOUTHWEST VIRGINIA
  
CITY           SKY/WX    TMP DP  RH WIND       PRES   REMARKS
STAUNTON*      SUNNY     85  63  47 E7        30.03F                  
HOT SPRINGS VA MOSUNNY   74  56  52 NW7       30.18S                  
LYNCHBURG      PTSUNNY   83  67  58 SW5       30.02F                  
DANVILLE       PTSUNNY   88  70  55 W6        30.00F                  
MARTINSVILLE   MOSUNNY   89  69  51 CALM      30.04F                  
ROANOKE        PTSUNNY   85  65  51 W9        30.04F                  
BLACKSBURG     MOSUNNY   82  70  65 NW7       30.11F                  
DUBLIN*        MOSUNNY   83  67  57 NW6       30.11F                  
MARION*        MOSUNNY  N/A N/A N/A W5        30.16S                  
HILLSVILLE*    PTSUNNY   77  66  69 CALM      30.13F                  
RICHLANDS*     PTCLDY    82  69  64 W7        30.15F                  
WISE*          PTSUNNY   81  64  57 E3        30.16F                  
ABINGDON*      MOSUNNY   83  69  62 NW5       30.11F                  
$$

MDZ021>025-VAZ099-100-281900-
SOUTHERN MARYLAND AND THE DELMARVA PENINSULA
  
CITY           SKY/WX    TMP DP  RH WIND       PRES   REMARKS
PATUXENT RIVER MOSUNNY   83  66  56 NE10      29.95S                  
BAY BRIDGE APT   N/A     79  59  50 N9        29.96F                  
LEONARDTOWN    SUNNY     82  59  44 N5        29.97S                  
DOVER          SUNNY     81  61  51 W18       29.92F                  
GEORGETOWN     SUNNY     83  59  44 VRB7      29.94S                  
EASTON         SUNNY     84  63  48 N9G18     29.99F                  
CAMBRIDGE      SUNNY     81  61  50 N9        29.95S                  
SALISBURY      SUNNY     87  59  38 NW12G17   29.94S                  
OCEAN CITY     SUNNY     86  58  38 W8        29.92F                  
WALLOPS ISLAND SUNNY     86  63  45 N9        29.94S                  
ACCOMACK*        N/A     81  64  57 N14       29.95                   
$$

NCZ012>017-030>032-281900-
EASTERN NORTH CAROLINA
  
CITY           SKY/WX    TMP DP  RH WIND       PRES   REMARKS
ELIZABETH CITY PTSUNNY   87  72  60 VRB5      29.95F                  
AHOSKIE*       SUNNY     85  70  60 CALM      29.96F                  
EDENTON*       MOSUNNY   86  73  63 W3        29.96F                  
CURRITUCK*     MOSUNNY   85  70  60 E6        29.96F                  
KILL DEVIL HLS MOSUNNY   84  71  65 N5        29.95S                  
MANTEO         MOSUNNY   83  72  68 NW6       29.96S                  
CAPE HATTERAS  SUNNY     83  69  62 W8        29.97S                  
GOLDSBORO      MOSUNNY   88  76  66 SW5       29.95F HX  98           
WASHINGTON     PTSUNNY   86  70  58 NW7       29.97F                  
GREENVILLE     MOSUNNY   88  72  58 CALM      29.99F                  
NEW BERN       MOSUNNY   92  67  43 NW5       29.98F HX  95           
WILMINGTON     SUNNY     89  64  43 NW5       29.98F                  
$$

VAZ048-281900-
ELSEWHERE
  
CITY           SKY/WX    TMP DP  RH WIND       PRES   REMARKS
HARRISBURG PA  PTSUNNY   78  55  44 NW14G22   29.98F                  
BALTIMORE      MOSUNNY   83  60  45 NW14      29.96S                  
ANNAPOLIS      SUNNY     80  60  50 NW10      29.95F                  
ANDREWS AFB    SUNNY     83  60  46 NW7       29.97S                  
WILMINGTON DE  SUNNY     80  58  46 NW17      29.96S                  
PHILADELPHIA   MOSUNNY   80  55  42 NW17      29.94S                  
WILDWOOD NJ*   SUNNY     79  57  47 W10G17    29.93F                  
ATLANTIC CITY  SUNNY     81  58  45 NW15G24   29.91S                  
HENDERSON NC   PTSUNNY   86  68  54 CALM      30.00S                  
GREENSBORO     PTSUNNY   88  67  49 VRB3      30.01F                  
ROCKY MOUNT    MOSUNNY   86  69  56 N5        29.98F                  
FAYETTEVILLE   SUNNY     93  67  42 VRB6      29.97F HX  96           
CHARLOTTE      SUNNY     90  63  40 CALM      30.03F                  
$$

VAZ100-281900-
MARINE
  
STATION/POSITION TIME  TEMP    WIND        PRES    WAVE   SWELL
                       AIR SEA DIR/SP/G            HT/PER HT/PER
                 (UTC) (F)     (DEG/KT/KT) (MB)    (FT/S) (FT/S)
44066 TX TWR #4  1800   72 73  330/ 14/ 17 1011.4R   8/14   7/14
CAPE MAY NJ      1800   79 80  320/  6/ 14 1013.0S
LEWES DE         1800   75 77  360/ 15/ 17 1013.3S
15NM E FENWICK I 1800   74 74              1013.1F   5/11
OCEAN-CITY-INLET 1800   80 75  350/  7/  8 1013.0S
WACHAPREAGUE VA  1800   83 80  300/  3/ 12 1014.0S
THOMAS POINT MD  1800   78 79  350/ 10/ 11 1015.1F
GOOSES REEF MD   1800   77      40/ 10/ 12 1014.9R
COVE POINT MD    1800   77      30/  9/ 11 1014.3R
SOLOMONS ISLAND  1800      81                N/A
BISHOPS HEAD MD  1800   79 82  290/ 12/ 15 1013.8S
PINEY POINT MD   1800          310/ 15/ 17   N/A
POTOMAC MD       1800   79     290/  6/  8 1013.8R
CAMBRIDGE MD     1800   78 79  340/  7/ 10 1014.1R
LEWISETTA VA     1800   81 80  320/  8/  9 1014.0S
RAPPAHANNOCK LGT 1800           10/ 12/ 14 1014.9R
STINGRAY PT      1800   78      40/ 10/ 14   N/A
YORK RVR RNG VA  1800   78      80/ 12/ 13 1014.0S
YORKTOWN VA      1800   82 80  290/  6/  7 1014.2S
JAMESTOWN VA     1800   81     310/  4/ 10   N/A
DOMINION TERM VA 1800   80     180/  4/  4 1014.7S
KIPTOPEKE VA     1800      81  350/  9/ 10   N/A
CHES BAY BRIDGE  1800   77 78  360/  9/ 11 1014.1F
CAPE HENRY VA    1800   78     340/ 12/ 13 1013.4S
CHESAPEAKE LGHT  1700   77      20/  5/  5 1015.1R
WILLOUBY STN VA  1800   78      50/  8/ 10 1013.4S
S CRANEY ISL VA  1800           10/  4/  5 1014.1F
CAPE HENRY BUOY  1800      78                N/A     3/12   2/12
1ST LANDING BUOY 1800   79     360/ 10/ 10 1014.3S
CAPE CHARLES BUO 1800      78                N/A     3/12   3/12
OFFSHORE WE BUOY 1800      76                N/A     4/12   3/12
64NM E OF VA BCH 1800   76 76  340/ 12/ 14 1013.7R   4/11   3/11
DUCK PIER NC     1800   78 77   10/ 10/ 11 1013.6S
44056 DUCK FRF   1800                        N/A     3/12   2/12
OREGON INLET NC  1800   82 77   10/  8/ 12 1014.4R
HATTERAS NC      1800   82 78  260/ 11/ 14 1015.4S
DIAMOND SHLS NC  1800   81     250/ 12/ 16 1014.7F   5/11   5/11
CAPE LOOKOUT NC  1800   81     250/ 11/ 14 1015.3F
$$

Return to Home page


Western Regional Climate Center, wrcc@dri.edu